| time (UTC) | temp F | wind direction | speed MPH | gust MPH | rain 1hr in | rain 24hr in | rain mn in | humidity % | barometer mb |
| 20260504004503 | 60 | 230 | 9.0 | 24.0 | 0.00 | 0.00 | 0.00 | 54 | 1008.4 |
| 20260504004434 | 60 | 229 | 8.0 | 24.0 | 0.00 | 0.00 | 0.00 | 54 | 1008.7 |
| 20260504004003 | 60 | 232 | 7.0 | 24.0 | 0.00 | 0.00 | 0.00 | 53 | 1008.3 |
| 20260504003934 | 60 | 233 | 6.0 | 24.0 | 0.00 | 0.00 | 0.00 | 52 | 1008.3 |
| 20260504003501 | 60 | 233 | 5.0 | 14.0 | 0.00 | 0.00 | 0.00 | 51 | 1008.1 |
| 20260504003404 | 60 | 238 | 5.0 | 14.0 | 0.00 | 0.00 | 0.00 | 50 | 1008.2 |
| 20260504003001 | 61 | 234 | 6.0 | 14.0 | 0.00 | 0.00 | 0.00 | 50 | 1008.1 |
| 20260504002904 | 60 | 233 | 6.0 | 14.0 | 0.00 | 0.00 | 0.00 | 50 | 1008.1 |
| 20260504002501 | 61 | 230 | 7.0 | 14.0 | 0.00 | 0.00 | 0.00 | 50 | 1008.1 |
| 20260504002404 | 61 | 228 | 6.0 | 14.0 | 0.00 | 0.00 | 0.00 | 49 | 1008.1 |
| 20260504002001 | 61 | 230 | 6.0 | 14.0 | 0.00 | 0.00 | 0.00 | 49 | 1008.0 |
| 20260504001904 | 61 | 229 | 6.0 | 14.0 | 0.00 | 0.00 | 0.00 | 49 | 1008.0 |
| 20260504001522 | 61 | 227 | 6.0 | 14.0 | 0.00 | 0.00 | 0.00 | 49 | 1007.9 |
| 20260504001404 | 61 | 225 | 6.0 | 15.0 | 0.00 | 0.00 | 0.00 | 48 | 1007.9 |
| 20260504001001 | 61 | 220 | 6.0 | 15.0 | 0.00 | 0.00 | 0.00 | 48 | 1007.9 |
| 20260504000904 | 61 | 221 | 6.0 | 15.0 | 0.00 | 0.00 | 0.00 | 48 | 1007.9 |
| 20260504000522 | 61 | 218 | 6.0 | 15.0 | 0.00 | 0.00 | 0.00 | 48 | 1007.9 |
| 20260504000404 | 61 | 218 | 6.0 | 15.0 | 0.00 | 0.00 | 0.00 | 48 | 1007.9 |
| 20260504000001 | 61 | 222 | 6.0 | 17.0 | 0.00 | 0.00 | 0.00 | 47 | 1007.9 |
| 20260503235904 | 61 | 223 | 6.0 | 17.0 | 0.00 | 0.00 | 0.00 | 47 | 1007.9 |
| 20260503235502 | 61 | 229 | 6.0 | 18.0 | 0.00 | 0.00 | 0.00 | 48 | 1007.9 |
| 20260503235404 | 61 | 227 | 6.0 | 18.0 | 0.00 | 0.00 | 0.00 | 48 | 1007.8 |
| 20260503235022 | 61 | 225 | 6.0 | 18.0 | 0.00 | 0.00 | 0.00 | 48 | 1007.8 |
| 20260503234904 | 61 | 224 | 6.0 | 18.0 | 0.00 | 0.00 | 0.00 | 47 | 1007.8 |
| 20260503234501 | 61 | 224 | 6.0 | 20.0 | 0.00 | 0.00 | 0.00 | 47 | 1007.8 |
| 20260503234404 | 61 | 227 | 6.0 | 20.0 | 0.00 | 0.00 | 0.00 | 48 | 1007.9 |
| 20260503234001 | 61 | 224 | 7.0 | 20.0 | 0.00 | 0.00 | 0.00 | 47 | 1007.8 |
| 20260503233904 | 62 | 223 | 6.0 | 20.0 | 0.00 | 0.00 | 0.00 | 48 | 1007.9 |
| 20260503233501 | 62 | 218 | 7.0 | 14.0 | 0.00 | 0.00 | 0.00 | 46 | 1007.9 |
| 20260503233404 | 62 | 220 | 6.0 | 14.0 | 0.00 | 0.00 | 0.00 | 46 | 1007.8 |
| 20260503233023 | 62 | 226 | 6.0 | 14.0 | 0.00 | 0.00 | 0.00 | 46 | 1007.8 |
| 20260503232903 | 62 | 231 | 7.0 | 17.0 | 0.00 | 0.00 | 0.00 | 46 | 1007.9 |
| 20260503232502 | 62 | 228 | 7.0 | 17.0 | 0.00 | 0.00 | 0.00 | 46 | 1007.8 |
| 20260503232403 | 62 | 226 | 7.0 | 17.0 | 0.00 | 0.00 | 0.00 | 46 | 1007.9 |
| 20260503232022 | 62 | 221 | 8.0 | 18.0 | 0.00 | 0.00 | 0.00 | 45 | 1007.9 |
| 20260503231903 | 63 | 222 | 8.0 | 18.0 | 0.00 | 0.00 | 0.00 | 45 | 1007.8 |
| 20260503231501 | 63 | 231 | 8.0 | 18.0 | 0.00 | 0.00 | 0.00 | 44 | 1007.9 |
| 20260503231403 | 63 | 234 | 8.0 | 19.0 | 0.00 | 0.00 | 0.00 | 44 | 1008.0 |
| 20260503231002 | 63 | 232 | 7.0 | 19.0 | 0.00 | 0.00 | 0.00 | 45 | 1007.9 |
| 20260503230903 | 63 | 228 | 8.0 | 19.0 | 0.00 | 0.00 | 0.00 | 44 | 1007.9 |
| 20260503230501 | 63 | 220 | 8.0 | 19.0 | 0.00 | 0.00 | 0.00 | 44 | 1007.9 |
| 20260503230403 | 63 | 215 | 8.0 | 18.0 | 0.00 | 0.00 | 0.00 | 44 | 1007.9 |
| 20260503230001 | 63 | 213 | 8.0 | 18.0 | 0.00 | 0.00 | 0.00 | 43 | 1007.9 |
| 20260503225903 | 63 | 212 | 8.0 | 18.0 | 0.00 | 0.00 | 0.00 | 44 | 1007.9 |
| 20260503225502 | 63 | 214 | 8.0 | 18.0 | 0.00 | 0.00 | 0.00 | 44 | 1008.0 |
| 20260503225403 | 63 | 218 | 7.0 | 18.0 | 0.00 | 0.00 | 0.00 | 44 | 1008.0 |
| 20260503225001 | 63 | 225 | 7.0 | 15.0 | 0.00 | 0.00 | 0.00 | 43 | 1008.2 |
| 20260503224903 | 63 | 227 | 7.0 | 15.0 | 0.00 | 0.00 | 0.00 | 44 | 1008.2 |
| 20260503224501 | 63 | 227 | 7.0 | 15.0 | 0.00 | 0.00 | 0.00 | 45 | 1008.2 |
| 20260503224403 | 63 | 224 | 7.0 | 13.0 | 0.00 | 0.00 | 0.00 | 44 | 1008.2 |
| 20260503224022 | 63 | 220 | 7.0 | 19.0 | 0.00 | 0.00 | 0.00 | 44 | 1008.3 |
| 20260503223903 | 63 | 221 | 7.0 | 19.0 | 0.00 | 0.00 | 0.00 | 44 | 1008.3 |
| 20260503223523 | 63 | 223 | 7.0 | 19.0 | 0.00 | 0.00 | 0.00 | 43 | 1008.3 |
| 20260503223403 | 63 | 224 | 7.0 | 19.0 | 0.00 | 0.00 | 0.00 | 43 | 1008.3 |
| 20260503223001 | 63 | 219 | 6.0 | 19.0 | 0.00 | 0.00 | 0.00 | 44 | 1008.3 |
| 20260503222903 | 63 | 218 | 6.0 | 19.0 | 0.00 | 0.00 | 0.00 | 44 | 1008.3 |
| 20260503222501 | 63 | 217 | 6.0 | 15.0 | 0.00 | 0.00 | 0.00 | 44 | 1008.4 |
| 20260503222403 | 63 | 217 | 7.0 | 15.0 | 0.00 | 0.00 | 0.00 | 43 | 1008.3 |
| 20260503222002 | 63 | 233 | 7.0 | 16.0 | 0.00 | 0.00 | 0.00 | 44 | 1008.4 |
| 20260503221903 | 63 | 237 | 9.0 | 17.0 | 0.00 | 0.00 | 0.00 | 43 | 1008.4 |
| 20260503221501 | 64 | 243 | 9.0 | 21.0 | 0.00 | 0.00 | 0.00 | 43 | 1008.5 |
| 20260503221403 | 64 | 242 | 9.0 | 21.0 | 0.00 | 0.00 | 0.00 | 43 | 1008.4 |
| 20260503221001 | 63 | 233 | 9.0 | 21.0 | 0.00 | 0.00 | 0.00 | 43 | 1008.5 |
| 20260503220903 | 63 | 229 | 8.0 | 21.0 | 0.00 | 0.00 | 0.00 | 44 | 1008.4 |
| 20260503220523 | 63 | 227 | 9.0 | 19.0 | 0.00 | 0.00 | 0.00 | 42 | 1008.4 |
| 20260503220402 | 63 | 228 | 9.0 | 19.0 | 0.00 | 0.00 | 0.00 | 42 | 1008.4 |
| 20260503220001 | 63 | 231 | 7.0 | 19.0 | 0.00 | 0.00 | 0.00 | 43 | 1008.5 |
| 20260503215902 | 63 | 234 | 7.0 | 19.0 | 0.00 | 0.00 | 0.00 | 44 | 1008.4 |
| 20260503215501 | 63 | 227 | 6.0 | 14.0 | 0.00 | 0.00 | 0.00 | 44 | 1008.5 |
| 20260503215402 | 63 | 225 | 7.0 | 13.0 | 0.00 | 0.00 | 0.00 | 45 | 1008.5 |
| 20260503215002 | 63 | 217 | 8.0 | 21.0 | 0.00 | 0.00 | 0.00 | 44 | 1008.3 |
| 20260503214902 | 63 | 215 | 9.0 | 21.0 | 0.00 | 0.00 | 0.00 | 44 | 1008.3 |
| 20260503214502 | 63 | 215 | 9.0 | 21.0 | 0.00 | 0.00 | 0.00 | 43 | 1008.4 |
| 20260503214402 | 63 | 216 | 9.0 | 21.0 | 0.00 | 0.00 | 0.00 | 43 | 1008.4 |
| 20260503214001 | 63 | 220 | 8.0 | 20.0 | 0.00 | 0.00 | 0.00 | 43 | 1008.3 |
| 20260503213902 | 63 | 221 | 8.0 | 20.0 | 0.00 | 0.00 | 0.00 | 44 | 1008.3 |
| 20260503213502 | 63 | 216 | 8.0 | 18.0 | 0.00 | 0.00 | 0.00 | 44 | 1008.4 |
| 20260503213402 | 63 | 216 | 8.0 | 19.0 | 0.00 | 0.00 | 0.00 | 44 | 1008.4 |
| 20260503213001 | 63 | 213 | 9.0 | 23.0 | 0.00 | 0.00 | 0.00 | 43 | 1008.3 |
| 20260503212902 | 63 | 213 | 9.0 | 23.0 | 0.00 | 0.00 | 0.00 | 43 | 1008.3 |
| 20260503212501 | 64 | 216 | 9.0 | 23.0 | 0.00 | 0.00 | 0.00 | 42 | 1008.5 |
| 20260503212402 | 64 | 220 | 8.0 | 23.0 | 0.00 | 0.00 | 0.00 | 42 | 1008.5 |
| 20260503212002 | 64 | 231 | 7.0 | 17.0 | 0.00 | 0.00 | 0.00 | 42 | 1008.4 |
| 20260503211902 | 64 | 230 | 6.0 | 17.0 | 0.00 | 0.00 | 0.00 | 43 | 1008.4 |
| 20260503211501 | 64 | 230 | 6.0 | 17.0 | 0.00 | 0.00 | 0.00 | 42 | 1008.4 |
| 20260503211402 | 64 | 224 | 6.0 | 20.0 | 0.00 | 0.00 | 0.00 | 42 | 1008.4 |
| 20260503211001 | 64 | 222 | 6.0 | 20.0 | 0.00 | 0.00 | 0.00 | 42 | 1008.4 |
| 20260503210902 | 64 | 227 | 7.0 | 20.0 | 0.00 | 0.00 | 0.00 | 42 | 1008.4 |
| 20260503210502 | 64 | 238 | 7.0 | 21.0 | 0.00 | 0.00 | 0.00 | 41 | 1008.4 |
| 20260503210402 | 64 | 244 | 7.0 | 21.0 | 0.00 | 0.00 | 0.00 | 42 | 1008.6 |
| 20260503210001 | 64 | 248 | 8.0 | 21.0 | 0.00 | 0.00 | 0.00 | 42 | 1008.4 |
| 20260503205901 | 64 | 247 | 7.0 | 21.0 | 0.00 | 0.00 | 0.00 | 42 | 1008.4 |
| 20260503205502 | 64 | 241 | 7.0 | 17.0 | 0.00 | 0.00 | 0.00 | 42 | 1008.4 |
| 20260503205401 | 64 | 239 | 7.0 | 17.0 | 0.00 | 0.00 | 0.00 | 41 | 1008.4 |
| 20260503205023 | 64 | 234 | 7.0 | 15.0 | 0.00 | 0.00 | 0.00 | 42 | 1008.5 |
| 20260503204901 | 64 | 226 | 7.0 | 18.0 | 0.00 | 0.00 | 0.00 | 41 | 1008.4 |
| 20260503204502 | 64 | 218 | 8.0 | 18.0 | 0.00 | 0.00 | 0.00 | 41 | 1008.4 |
| 20260503204401 | 64 | 217 | 8.0 | 18.0 | 0.00 | 0.00 | 0.00 | 42 | 1008.4 |
| 20260503204001 | 64 | 218 | 7.0 | 18.0 | 0.00 | 0.00 | 0.00 | 41 | 1008.5 |
| 20260503203901 | 64 | 219 | 8.0 | 18.0 | 0.00 | 0.00 | 0.00 | 41 | 1008.6 |
| 20260503203501 | 64 | 219 | 8.0 | 18.0 | 0.00 | 0.00 | 0.00 | 41 | 1008.5 |
| 20260503203401 | 64 | 219 | 8.0 | 18.0 | 0.00 | 0.00 | 0.00 | 41 | 1008.6 |
| 20260503203001 | 64 | 213 | 8.0 | 18.0 | 0.00 | 0.00 | 0.00 | 40 | 1008.5 |
| 20260503202901 | 64 | 214 | 8.0 | 17.0 | 0.00 | 0.00 | 0.00 | 40 | 1008.6 |
| 20260503202501 | 64 | 214 | 7.0 | 17.0 | 0.00 | 0.00 | 0.00 | 39 | 1008.6 |
| 20260503202401 | 64 | 217 | 7.0 | 18.0 | 0.00 | 0.00 | 0.00 | 40 | 1008.6 |
| 20260503202023 | 65 | 218 | 8.0 | 18.0 | 0.00 | 0.00 | 0.00 | 39 | 1008.5 |
| 20260503201901 | 65 | 217 | 8.0 | 18.0 | 0.00 | 0.00 | 0.00 | 40 | 1008.5 |
| 20260503201502 | 65 | 218 | 8.0 | 18.0 | 0.00 | 0.00 | 0.00 | 39 | 1008.5 |
| 20260503201401 | 65 | 215 | 7.0 | 17.0 | 0.00 | 0.00 | 0.00 | 39 | 1008.5 |
| 20260503201023 | 65 | 215 | 7.0 | 14.0 | 0.00 | 0.00 | 0.00 | 40 | 1008.5 |
| 20260503200901 | 65 | 216 | 7.0 | 15.0 | 0.00 | 0.00 | 0.00 | 40 | 1008.5 |
| 20260503200502 | 65 | 219 | 7.0 | 15.0 | 0.00 | 0.00 | 0.00 | 41 | 1008.6 |
| 20260503200401 | 64 | 218 | 8.0 | 15.0 | 0.00 | 0.00 | 0.00 | 40 | 1008.6 |
| 20260503200002 | 64 | 219 | 8.0 | 17.0 | 0.00 | 0.00 | 0.00 | 39 | 1008.6 |
| 20260503195901 | 64 | 218 | 7.0 | 17.0 | 0.00 | 0.00 | 0.00 | 38 | 1008.6 |
| 20260503195524 | 65 | 224 | 7.0 | 17.0 | 0.00 | 0.00 | 0.00 | 38 | 1008.7 |
| 20260503195401 | 65 | 226 | 8.0 | 17.0 | 0.00 | 0.00 | 0.00 | 38 | 1008.7 |
| 20260503195001 | 65 | 227 | 8.0 | 16.0 | 0.00 | 0.00 | 0.00 | 39 | 1008.9 |
| 20260503194901 | 65 | 228 | 7.0 | 16.0 | 0.00 | 0.00 | 0.00 | 38 | 1009.0 |
| 20260503194502 | 65 | 222 | 7.0 | 16.0 | 0.00 | 0.00 | 0.00 | 36 | 1009.0 |
| 20260503194400 | 65 | 221 | 7.0 | 14.0 | 0.00 | 0.00 | 0.00 | 38 | 1008.9 |
| 20260503194001 | 66 | 220 | 7.0 | 22.0 | 0.00 | 0.00 | 0.00 | 39 | 1009.0 |
| 20260503193900 | 65 | 219 | 8.0 | 22.0 | 0.00 | 0.00 | 0.00 | 37 | 1009.0 |
| 20260503193522 | 66 | 218 | 8.0 | 22.0 | 0.00 | 0.00 | 0.00 | 37 | 1009.2 |
| 20260503193400 | 66 | 219 | 7.0 | 22.0 | 0.00 | 0.00 | 0.00 | 37 | 1009.3 |
| 20260503193002 | 66 | 232 | 7.0 | 21.0 | 0.00 | 0.00 | 0.00 | 38 | 1009.0 |
| 20260503192900 | 66 | 240 | 7.0 | 16.0 | 0.00 | 0.00 | 0.00 | 39 | 1009.0 |
| 20260503192502 | 65 | 247 | 8.0 | 17.0 | 0.00 | 0.00 | 0.00 | 41 | 1009.1 |
| 20260503192400 | 65 | 244 | 9.0 | 17.0 | 0.00 | 0.00 | 0.00 | 40 | 1009.1 |
| 20260503192001 | 64 | 245 | 10.0 | 21.0 | 0.00 | 0.00 | 0.00 | 40 | 1009.3 |
| 20260503191900 | 64 | 242 | 11.0 | 21.0 | 0.00 | 0.00 | 0.00 | 40 | 1009.3 |
| 20260503191501 | 64 | 239 | 11.0 | 25.0 | 0.00 | 0.00 | 0.00 | 39 | 1009.4 |
| 20260503191400 | 64 | 242 | 11.0 | 25.0 | 0.00 | 0.00 | 0.00 | 40 | 1009.4 |
| 20260503191002 | 64 | 234 | 10.0 | 25.0 | 0.00 | 0.00 | 0.00 | 38 | 1009.5 |
| 20260503190900 | 65 | 233 | 10.0 | 25.0 | 0.00 | 0.00 | 0.00 | 37 | 1009.6 |
| 20260503190502 | 65 | 230 | 10.0 | 21.0 | 0.00 | 0.00 | 0.00 | 38 | 1009.5 |
| 20260503190400 | 65 | 227 | 10.0 | 21.0 | 0.00 | 0.00 | 0.00 | 38 | 1009.5 |
| 20260503190001 | 66 | 223 | 8.0 | 15.0 | 0.00 | 0.00 | 0.00 | 37 | 1009.8 |
| 20260503185900 | 66 | 226 | 8.0 | 17.0 | 0.00 | 0.00 | 0.00 | 37 | 1009.8 |
| 20260503185503 | 66 | 223 | 8.0 | 22.0 | 0.00 | 0.00 | 0.00 | 37 | 1010.0 |
| 20260503185400 | 67 | 224 | 8.0 | 22.0 | 0.00 | 0.00 | 0.00 | 38 | 1010.0 |
| 20260503185002 | 67 | 225 | 8.0 | 22.0 | 0.00 | 0.00 | 0.00 | 38 | 1010.0 |
| 20260503184900 | 67 | 227 | 9.0 | 22.0 | 0.00 | 0.00 | 0.00 | 37 | 1010.0 |
| 20260503184502 | 66 | 231 | 9.0 | 19.0 | 0.00 | 0.00 | 0.00 | 37 | 1010.0 |
| 20260503184400 | 66 | 233 | 9.0 | 19.0 | 0.00 | 0.00 | 0.00 | 37 | 1010.0 |
| 20260503184002 | 66 | 240 | 9.0 | 24.0 | 0.00 | 0.00 | 0.00 | 39 | 1010.0 |
| 20260503183900 | 65 | 236 | 8.0 | 24.0 | 0.00 | 0.00 | 0.00 | 40 | 1010.0 |
| 20260503183502 | 65 | 231 | 9.0 | 24.0 | 0.00 | 0.00 | 0.00 | 39 | 1010.0 |
| 20260503183400 | 65 | 231 | 8.0 | 24.0 | 0.00 | 0.00 | 0.00 | 38 | 1010.1 |
| 20260503183002 | 64 | 222 | 8.0 | 18.0 | 0.00 | 0.00 | 0.00 | 39 | 1010.2 |
| 20260503182900 | 64 | 222 | 8.0 | 17.0 | 0.00 | 0.00 | 0.00 | 39 | 1010.2 |
| 20260503182501 | 64 | 227 | 8.0 | 18.0 | 0.00 | 0.00 | 0.00 | 39 | 1010.3 |
| 20260503182400 | 64 | 228 | 8.0 | 18.0 | 0.00 | 0.00 | 0.00 | 39 | 1010.2 |
| 20260503182002 | 64 | 232 | 8.0 | 23.0 | 0.00 | 0.00 | 0.00 | 38 | 1010.4 |
| 20260503181900 | 64 | 231 | 8.0 | 23.0 | 0.00 | 0.00 | 0.00 | 38 | 1010.5 |
| 20260503181503 | 64 | 230 | 9.0 | 23.0 | 0.00 | 0.00 | 0.00 | 38 | 1010.5 |
| 20260503181359 | 64 | 228 | 9.0 | 23.0 | 0.00 | 0.00 | 0.00 | 38 | 1010.4 |
| 20260503181002 | 65 | 226 | 9.0 | 22.0 | 0.00 | 0.00 | 0.00 | 37 | 1010.5 |
| 20260503180859 | 65 | 224 | 10.0 | 22.0 | 0.00 | 0.00 | 0.00 | 38 | 1010.4 |
| 20260503180522 | 65 | 223 | 9.0 | 22.0 | 0.00 | 0.00 | 0.00 | 37 | 1010.4 |
| 20260503180359 | 65 | 222 | 9.0 | 22.0 | 0.00 | 0.00 | 0.00 | 37 | 1010.4 |
| 20260503180001 | 65 | 228 | 9.0 | 22.0 | 0.00 | 0.00 | 0.00 | 37 | 1010.4 |
| 20260503175859 | 65 | 231 | 8.0 | 21.0 | 0.00 | 0.00 | 0.00 | 38 | 1010.5 |
| 20260503175523 | 64 | 227 | 8.0 | 21.0 | 0.00 | 0.00 | 0.00 | 38 | 1010.5 |
| 20260503175359 | 64 | 224 | 8.0 | 21.0 | 0.00 | 0.00 | 0.00 | 37 | 1010.6 |
| 20260503175002 | 64 | 211 | 8.0 | 18.0 | 0.00 | 0.00 | 0.00 | 38 | 1010.8 |
| 20260503174859 | 64 | 209 | 7.0 | 18.0 | 0.00 | 0.00 | 0.00 | 38 | 1010.6 |
| 20260503174522 | 64 | 216 | 7.0 | 17.0 | 0.00 | 0.00 | 0.00 | 37 | 1010.7 |
| 20260503174359 | 64 | 221 | 6.0 | 17.0 | 0.00 | 0.00 | 0.00 | 38 | 1010.8 |
| 20260503174023 | 65 | 232 | 6.0 | 14.0 | 0.00 | 0.00 | 0.00 | 37 | 1010.8 |
| 20260503173859 | 65 | 238 | 7.0 | 14.0 | 0.00 | 0.00 | 0.00 | 38 | 1010.8 |
| 20260503173502 | 65 | 238 | 8.0 | 17.0 | 0.00 | 0.00 | 0.00 | 38 | 1010.8 |
| 20260503173359 | 65 | 242 | 9.0 | 18.0 | 0.00 | 0.00 | 0.00 | 39 | 1010.8 |
| 20260503173002 | 64 | 248 | 9.0 | 18.0 | 0.00 | 0.00 | 0.00 | 39 | 1011.0 |
| 20260503172859 | 64 | 248 | 10.0 | 18.0 | 0.00 | 0.00 | 0.00 | 39 | 1011.0 |
| 20260503172502 | 64 | 252 | 10.0 | 23.0 | 0.00 | 0.00 | 0.00 | 39 | 1011.0 |
| 20260503172359 | 64 | 255 | 10.0 | 23.0 | 0.00 | 0.00 | 0.00 | 38 | 1011.0 |
| 20260503172023 | 63 | 247 | 9.0 | 23.0 | 0.00 | 0.00 | 0.00 | 39 | 1011.1 |
| 20260503171859 | 63 | 248 | 8.0 | 23.0 | 0.00 | 0.00 | 0.00 | 39 | 1011.1 |
| 20260503171501 | 63 | 243 | 8.0 | 22.0 | 0.00 | 0.00 | 0.00 | 39 | 1011.1 |
| 20260503171359 | 63 | 242 | 9.0 | 19.0 | 0.00 | 0.00 | 0.00 | 40 | 1011.2 |
| 20260503171023 | 63 | 250 | 10.0 | 20.0 | 0.00 | 0.00 | 0.00 | 39 | 1011.1 |
| 20260503170859 | 63 | 247 | 10.0 | 20.0 | 0.00 | 0.00 | 0.00 | 38 | 1011.2 |
| 20260503170502 | 63 | 243 | 10.0 | 20.0 | 0.00 | 0.00 | 0.00 | 39 | 1011.3 |
| 20260503170359 | 63 | 241 | 10.0 | 20.0 | 0.00 | 0.00 | 0.00 | 39 | 1011.4 |
| 20260503150857 | 60 | 252 | 9.0 | 21.0 | 0.00 | 0.00 | 0.00 | 43 | 1012.1 |
| 20260503150502 | 59 | 252 | 8.0 | 21.0 | 0.00 | 0.00 | 0.00 | 44 | 1012.1 |
| 20260503150357 | 59 | 255 | 8.0 | 21.0 | 0.00 | 0.00 | 0.00 | 44 | 1012.1 |
| 20260503131355 | 50 | 229 | 6.0 | 13.0 | 0.00 | 0.00 | 0.00 | 53 | 1012.7 |
| 20260503131002 | 50 | 233 | 6.0 | 14.0 | 0.00 | 0.00 | 0.00 | 52 | 1012.7 |
| 20260503130855 | 50 | 237 | 6.0 | 14.0 | 0.00 | 0.00 | 0.00 | 52 | 1012.7 |
| 20260503130523 | 50 | 240 | 6.0 | 14.0 | 0.00 | 0.00 | 0.00 | 53 | 1012.7 |
| 20260503130355 | 50 | 240 | 7.0 | 14.0 | 0.00 | 0.00 | 0.00 | 53 | 1012.6 |
| 20260503110503 | 38 | 223 | 2.0 | 5.0 | 0.00 | 0.00 | 0.00 | 68 | 1013.2 |
| 20260503110353 | 38 | 224 | 2.0 | 5.0 | 0.00 | 0.00 | 0.00 | 68 | 1013.3 |
| 20260503090503 | 40 | 250 | 3.0 | 7.0 | 0.00 | 0.00 | 0.00 | 66 | 1013.9 |
| 20260503090351 | 40 | 253 | 3.0 | 7.0 | 0.00 | 0.00 | 0.00 | 66 | 1014.0 |
| 20260503081502 | 40 | 255 | 3.0 | 8.0 | 0.00 | 0.00 | 0.00 | 65 | 1014.1 |
| 20260503081350 | 40 | 254 | 3.0 | 8.0 | 0.00 | 0.00 | 0.00 | 66 | 1014.1 |
| 20260503081023 | 40 | 255 | 3.0 | 8.0 | 0.00 | 0.00 | 0.00 | 67 | 1014.1 |
| 20260503080850 | 40 | 257 | 3.0 | 8.0 | 0.00 | 0.00 | 0.00 | 68 | 1014.1 |
| 20260503080503 | 40 | 259 | 3.0 | 7.0 | 0.00 | 0.00 | 0.00 | 71 | 1014.1 |
| 20260503080350 | 40 | 264 | 3.0 | 7.0 | 0.00 | 0.00 | 0.00 | 74 | 1014.2 |
| 20260503072850 | 40 | 246 | 2.0 | 7.0 | 0.00 | 0.00 | 0.00 | 68 | 1014.3 |
| 20260503072523 | 40 | 255 | 2.0 | 7.0 | 0.00 | 0.00 | 0.00 | 68 | 1014.2 |
| 20260503072350 | 40 | 257 | 2.0 | 7.0 | 0.00 | 0.00 | 0.00 | 69 | 1014.3 |
| 20260503072003 | 40 | 253 | 2.0 | 7.0 | 0.00 | 0.00 | 0.00 | 71 | 1014.3 |
| 20260503071850 | 40 | 250 | 2.0 | 5.0 | 0.00 | 0.00 | 0.00 | 71 | 1014.2 |
| 20260503071503 | 40 | 249 | 2.0 | 5.0 | 0.00 | 0.00 | 0.00 | 70 | 1014.2 |
| 20260503071349 | 40 | 248 | 2.0 | 5.0 | 0.00 | 0.00 | 0.00 | 71 | 1014.2 |
| 20260503071023 | 39 | 248 | 2.0 | 4.0 | 0.00 | 0.00 | 0.00 | 69 | 1014.2 |
| 20260503070849 | 39 | 248 | 2.0 | 4.0 | 0.00 | 0.00 | 0.00 | 67 | 1014.2 |
| 20260503070503 | 39 | 248 | 2.0 | 4.0 | 0.00 | 0.00 | 0.00 | 66 | 1014.2 |
| 20260503070349 | 39 | 248 | 2.0 | 4.0 | 0.00 | 0.00 | 0.00 | 66 | 1014.3 |
| 20260503055003 | 40 | 279 | 2.0 | 5.0 | 0.00 | 0.00 | 0.00 | 65 | 1014.8 |
| 20260503054848 | 40 | 286 | 2.0 | 5.0 | 0.00 | 0.00 | 0.00 | 66 | 1014.7 |
| 20260503054503 | 40 | 289 | 2.0 | 4.0 | 0.00 | 0.00 | 0.00 | 65 | 1014.9 |
| 20260503054348 | 40 | 289 | 2.0 | 4.0 | 0.00 | 0.00 | 0.00 | 65 | 1014.8 |
| 20260503054003 | 40 | 290 | 2.0 | 4.0 | 0.00 | 0.00 | 0.00 | 65 | 1014.8 |
| 20260503053848 | 40 | 290 | 2.0 | 4.0 | 0.00 | 0.00 | 0.00 | 65 | 1014.9 |
| 20260503053503 | 40 | 290 | 2.0 | 4.0 | 0.00 | 0.00 | 0.00 | 66 | 1014.9 |
| 20260503053348 | 40 | 290 | 2.0 | 4.0 | 0.00 | 0.00 | 0.00 | 66 | 1014.9 |
| 20260503053003 | 39 | 290 | 2.0 | 4.0 | 0.00 | 0.00 | 0.00 | 66 | 1014.8 |
| 20260503052848 | 39 | 290 | 2.0 | 4.0 | 0.00 | 0.00 | 0.00 | 66 | 1014.8 |
| 20260503052502 | 39 | 290 | 2.0 | 3.0 | 0.00 | 0.00 | 0.00 | 66 | 1014.8 |
| 20260503052348 | 39 | 290 | 2.0 | 3.0 | 0.00 | 0.00 | 0.00 | 66 | 1015.0 |
| 20260503052003 | 39 | 290 | 2.0 | 3.0 | 0.00 | 0.00 | 0.00 | 67 | 1014.9 |
| 20260503051848 | 39 | 290 | 2.0 | 3.0 | 0.00 | 0.00 | 0.00 | 66 | 1014.9 |
| 20260503051503 | 39 | 290 | 2.0 | 3.0 | 0.00 | 0.00 | 0.00 | 67 | 1015.0 |
| 20260503051348 | 39 | 290 | 1.0 | 3.0 | 0.00 | 0.00 | 0.00 | 67 | 1015.1 |
| 20260503051003 | 39 | 290 | 1.0 | 3.0 | 0.00 | 0.00 | 0.00 | 67 | 1015.1 |
| 20260503050848 | 39 | 290 | 1.0 | 3.0 | 0.00 | 0.00 | 0.00 | 67 | 1015.0 |
| 20260503050524 | 39 | 290 | 1.0 | 3.0 | 0.00 | 0.00 | 0.00 | 67 | 1015.0 |
| 20260503050348 | 39 | 290 | 1.0 | 3.0 | 0.00 | 0.00 | 0.00 | 66 | 1015.0 |
| 20260503050005 | 39 | 290 | 2.0 | 3.0 | 0.00 | 0.00 | 0.00 | 66 | 1015.0 |
| 20260503045848 | 39 | 290 | 1.0 | 3.0 | 0.00 | 0.00 | 0.00 | 66 | 1015.0 |
| 20260503045503 | 39 | 290 | 1.0 | 3.0 | 0.00 | 0.00 | 0.00 | 66 | 1015.0 |
| 20260503045347 | 39 | 290 | 1.0 | 4.0 | 0.00 | 0.00 | 0.00 | 66 | 1015.0 |
| 20260503045024 | 39 | 290 | 1.0 | 4.0 | 0.00 | 0.00 | 0.00 | 66 | 1015.1 |
| 20260503044847 | 39 | 290 | 2.0 | 4.0 | 0.00 | 0.00 | 0.00 | 66 | 1015.1 |
| 20260503044503 | 39 | 290 | 1.0 | 4.0 | 0.00 | 0.00 | 0.00 | 66 | 1015.1 |
| 20260503044347 | 39 | 290 | 1.0 | 4.0 | 0.00 | 0.00 | 0.00 | 67 | 1015.0 |
| 20260503044003 | 39 | 290 | 0.0 | 4.0 | 0.00 | 0.00 | 0.00 | 67 | 1015.0 |
| 20260503043847 | 39 | 0 | 0.0 | 0.0 | 0.00 | 0.00 | 0.00 | 67 | 1015.0 |
| 20260503043503 | 39 | 290 | 0.0 | 2.0 | 0.00 | 0.00 | 0.00 | 67 | 1015.1 |
| 20260503043347 | 39 | 290 | 1.0 | 2.0 | 0.00 | 0.00 | 0.00 | 67 | 1015.1 |
| 20260503043004 | 39 | 290 | 1.0 | 2.0 | 0.00 | 0.00 | 0.00 | 67 | 1015.1 |
| 20260503042847 | 39 | 290 | 1.0 | 2.0 | 0.00 | 0.00 | 0.00 | 66 | 1015.1 |
| 20260503042525 | 39 | 290 | 1.0 | 2.0 | 0.00 | 0.00 | 0.00 | 66 | 1015.1 |
| 20260503042347 | 39 | 290 | 1.0 | 2.0 | 0.00 | 0.00 | 0.00 | 66 | 1015.2 |
| 20260503042003 | 39 | 290 | 1.0 | 2.0 | 0.00 | 0.00 | 0.00 | 66 | 1015.1 |
| 20260503041847 | 40 | 290 | 1.0 | 2.0 | 0.00 | 0.00 | 0.00 | 66 | 1015.1 |
| 20260503041502 | 40 | 290 | 1.0 | 2.0 | 0.00 | 0.00 | 0.00 | 65 | 1015.2 |
| 20260503041347 | 40 | 290 | 1.0 | 4.0 | 0.00 | 0.00 | 0.00 | 65 | 1015.2 |
| 20260503041003 | 40 | 290 | 1.0 | 4.0 | 0.00 | 0.00 | 0.00 | 65 | 1015.2 |
| 20260503040847 | 40 | 290 | 1.0 | 4.0 | 0.00 | 0.00 | 0.00 | 65 | 1015.2 |
| 20260503040503 | 40 | 290 | 1.0 | 4.0 | 0.00 | 0.00 | 0.00 | 65 | 1015.2 |
| 20260503040347 | 40 | 290 | 1.0 | 4.0 | 0.00 | 0.00 | 0.00 | 65 | 1015.2 |
| 20260503040003 | 40 | 291 | 1.0 | 4.0 | 0.00 | 0.00 | 0.00 | 65 | 1015.2 |
| 20260503035847 | 40 | 291 | 1.0 | 4.0 | 0.00 | 0.00 | 0.00 | 65 | 1015.2 |
| 20260503035524 | 40 | 291 | 2.0 | 4.0 | 0.00 | 0.00 | 0.00 | 65 | 1015.2 |
| 20260503035347 | 40 | 292 | 1.0 | 3.0 | 0.00 | 0.00 | 0.00 | 65 | 1015.3 |
| 20260503035004 | 40 | 292 | 1.0 | 3.0 | 0.00 | 0.00 | 0.00 | 66 | 1015.3 |
| 20260503034846 | 40 | 292 | 1.0 | 3.0 | 0.00 | 0.00 | 0.00 | 65 | 1015.2 |
| 20260503034503 | 40 | 292 | 0.0 | 3.0 | 0.00 | 0.00 | 0.00 | 66 | 1015.3 |
| 20260503034346 | 40 | 0 | 0.0 | 0.0 | 0.00 | 0.00 | 0.00 | 66 | 1015.2 |
| 20260503034003 | 40 | 0 | 0.0 | 0.0 | 0.00 | 0.00 | 0.00 | 66 | 1015.3 |
| 20260503033846 | 40 | 292 | 0.0 | 1.0 | 0.00 | 0.00 | 0.00 | 66 | 1015.3 |
| 20260503033504 | 40 | 292 | 1.0 | 3.0 | 0.00 | 0.00 | 0.00 | 66 | 1015.3 |
| 20260503033346 | 40 | 292 | 1.0 | 3.0 | 0.00 | 0.00 | 0.00 | 65 | 1015.3 |
| 20260503033003 | 40 | 292 | 1.0 | 3.0 | 0.00 | 0.00 | 0.00 | 65 | 1015.3 |
| 20260503032846 | 40 | 292 | 2.0 | 3.0 | 0.00 | 0.00 | 0.00 | 65 | 1015.4 |
| 20260503032504 | 40 | 292 | 2.0 | 3.0 | 0.00 | 0.00 | 0.00 | 65 | 1015.4 |
| 20260503032346 | 40 | 292 | 2.0 | 3.0 | 0.00 | 0.00 | 0.00 | 65 | 1015.3 |
| 20260503032003 | 40 | 292 | 2.0 | 3.0 | 0.00 | 0.00 | 0.00 | 65 | 1015.4 |
| 20260503031846 | 40 | 292 | 1.0 | 3.0 | 0.00 | 0.00 | 0.00 | 65 | 1015.4 |
| 20260503031504 | 39 | 292 | 1.0 | 3.0 | 0.00 | 0.00 | 0.00 | 66 | 1015.4 |
| 20260503031346 | 39 | 292 | 1.0 | 3.0 | 0.00 | 0.00 | 0.00 | 66 | 1015.4 |
| 20260503031003 | 39 | 292 | 1.0 | 3.0 | 0.00 | 0.00 | 0.00 | 66 | 1015.3 |
| 20260503030846 | 39 | 292 | 1.0 | 3.0 | 0.00 | 0.00 | 0.00 | 66 | 1015.4 |
| 20260503030503 | 39 | 292 | 1.0 | 3.0 | 0.00 | 0.00 | 0.00 | 66 | 1015.4 |
| 20260503030346 | 39 | 292 | 1.0 | 3.0 | 0.00 | 0.00 | 0.00 | 66 | 1015.5 |
| 20260503030004 | 39 | 292 | 1.0 | 3.0 | 0.00 | 0.00 | 0.00 | 66 | 1015.4 |
| 20260503025846 | 39 | 292 | 1.0 | 3.0 | 0.00 | 0.00 | 0.00 | 66 | 1015.5 |
| 20260503025503 | 39 | 292 | 1.0 | 2.0 | 0.00 | 0.00 | 0.00 | 66 | 1015.5 |
| 20260503025346 | 39 | 292 | 1.0 | 2.0 | 0.00 | 0.00 | 0.00 | 66 | 1015.5 |
| 20260503025003 | 39 | 292 | 1.0 | 2.0 | 0.00 | 0.00 | 0.00 | 66 | 1015.5 |
| 20260503024846 | 39 | 292 | 1.0 | 2.0 | 0.00 | 0.00 | 0.00 | 66 | 1015.5 |
| 20260503024503 | 39 | 292 | 1.0 | 2.0 | 0.00 | 0.00 | 0.00 | 66 | 1015.6 |
| 20260503024346 | 39 | 292 | 0.0 | 2.0 | 0.00 | 0.00 | 0.00 | 66 | 1015.6 |
| 20260503024003 | 39 | 292 | 0.0 | 1.0 | 0.00 | 0.00 | 0.00 | 66 | 1015.6 |
| 20260503023845 | 40 | 292 | 0.0 | 1.0 | 0.00 | 0.00 | 0.00 | 66 | 1015.7 |
| 20260503023503 | 40 | 292 | 0.0 | 1.0 | 0.00 | 0.00 | 0.00 | 65 | 1015.7 |
| 20260503023345 | 40 | 292 | 0.0 | 1.0 | 0.00 | 0.00 | 0.00 | 65 | 1015.6 |
| 20260503023003 | 40 | 0 | 0.0 | 0.0 | 0.00 | 0.00 | 0.00 | 65 | 1015.8 |
| 20260503022845 | 40 | 0 | 0.0 | 0.0 | 0.00 | 0.00 | 0.00 | 65 | 1015.7 |
| 20260503022503 | 40 | 0 | 0.0 | 0.0 | 0.00 | 0.00 | 0.00 | 64 | 1015.7 |
| 20260503022345 | 40 | 0 | 0.0 | 0.0 | 0.00 | 0.00 | 0.00 | 64 | 1015.8 |
| 20260503022003 | 40 | 0 | 0.0 | 0.0 | 0.00 | 0.00 | 0.00 | 64 | 1015.8 |
| 20260503021845 | 40 | 0 | 0.0 | 0.0 | 0.00 | 0.00 | 0.00 | 63 | 1015.7 |
| 20260503021503 | 40 | 0 | 0.0 | 0.0 | 0.00 | 0.00 | 0.00 | 63 | 1015.7 |
| 20260503021345 | 40 | 0 | 0.0 | 0.0 | 0.00 | 0.00 | 0.00 | 63 | 1015.7 |
| 20260503021003 | 40 | 0 | 0.0 | 0.0 | 0.00 | 0.00 | 0.00 | 62 | 1015.8 |
| 20260503020845 | 41 | 0 | 0.0 | 0.0 | 0.00 | 0.00 | 0.00 | 62 | 1015.7 |
| 20260503020503 | 41 | 0 | 0.0 | 0.0 | 0.00 | 0.00 | 0.00 | 62 | 1015.7 |
| 20260503020345 | 41 | 0 | 0.0 | 0.0 | 0.00 | 0.00 | 0.00 | 62 | 1015.7 |
| 20260503020004 | 41 | 0 | 0.0 | 0.0 | 0.00 | 0.00 | 0.00 | 61 | 1015.7 |
| 20260503015845 | 41 | 0 | 0.0 | 0.0 | 0.00 | 0.00 | 0.00 | 61 | 1015.7 |
| 20260503015524 | 41 | 0 | 0.0 | 0.0 | 0.00 | 0.00 | 0.00 | 61 | 1015.6 |
| 20260503015345 | 42 | 0 | 0.0 | 0.0 | 0.00 | 0.00 | 0.00 | 61 | 1015.6 |
| 20260503015003 | 42 | 0 | 0.0 | 0.0 | 0.00 | 0.00 | 0.00 | 60 | 1015.7 |
| 20260503014845 | 42 | 0 | 0.0 | 0.0 | 0.00 | 0.00 | 0.00 | 60 | 1015.7 |
| 20260503014525 | 42 | 0 | 0.0 | 0.0 | 0.00 | 0.00 | 0.00 | 59 | 1015.7 |
| 20260503014345 | 42 | 0 | 0.0 | 0.0 | 0.00 | 0.00 | 0.00 | 59 | 1015.6 |
| 20260503014003 | 42 | 0 | 0.0 | 0.0 | 0.00 | 0.00 | 0.00 | 59 | 1015.6 |
| 20260503013845 | 42 | 0 | 0.0 | 0.0 | 0.00 | 0.00 | 0.00 | 59 | 1015.6 |
| 20260503013524 | 42 | 0 | 0.0 | 0.0 | 0.00 | 0.00 | 0.00 | 58 | 1015.6 |
| 20260503013345 | 43 | 292 | 0.0 | 1.0 | 0.00 | 0.00 | 0.00 | 57 | 1015.6 |
| 20260503013004 | 43 | 292 | 0.0 | 1.0 | 0.00 | 0.00 | 0.00 | 57 | 1015.5 |
| 20260503012844 | 43 | 292 | 0.0 | 1.0 | 0.00 | 0.00 | 0.00 | 57 | 1015.6 |
| 20260503012503 | 43 | 292 | 0.0 | 1.0 | 0.00 | 0.00 | 0.00 | 57 | 1015.5 |
| 20260503012344 | 43 | 292 | 0.0 | 1.0 | 0.00 | 0.00 | 0.00 | 56 | 1015.5 |
| 20260503012024 | 44 | 0 | 0.0 | 0.0 | 0.00 | 0.00 | 0.00 | 56 | 1015.5 |
| 20260503011844 | 44 | 0 | 0.0 | 0.0 | 0.00 | 0.00 | 0.00 | 56 | 1015.5 |
| 20260503011503 | 44 | 0 | 0.0 | 0.0 | 0.00 | 0.00 | 0.00 | 54 | 1015.5 |
| 20260503011344 | 44 | 0 | 0.0 | 0.0 | 0.00 | 0.00 | 0.00 | 54 | 1015.5 |
| 20260503011004 | 44 | 0 | 0.0 | 0.0 | 0.00 | 0.00 | 0.00 | 53 | 1015.5 |
| 20260503010844 | 44 | 0 | 0.0 | 0.0 | 0.00 | 0.00 | 0.00 | 53 | 1015.5 |
| 20260503010504 | 45 | 0 | 0.0 | 0.0 | 0.00 | 0.00 | 0.00 | 52 | 1015.5 |
| 20260503010344 | 45 | 0 | 0.0 | 0.0 | 0.00 | 0.00 | 0.00 | 51 | 1015.5 |
| 20260503010003 | 45 | 0 | 0.0 | 0.0 | 0.00 | 0.00 | 0.00 | 51 | 1015.5 |
| 20260503005844 | 45 | 0 | 0.0 | 0.0 | 0.00 | 0.00 | 0.00 | 51 | 1015.5 |
| 20260503005503 | 46 | 0 | 0.0 | 0.0 | 0.00 | 0.00 | 0.00 | 50 | 1015.4 |
| 20260503005344 | 46 | 0 | 0.0 | 0.0 | 0.00 | 0.00 | 0.00 | 50 | 1015.4 |
| 20260503005004 | 46 | 0 | 0.0 | 0.0 | 0.00 | 0.00 | 0.00 | 50 | 1015.4 |
| 20260503004844 | 46 | 0 | 0.0 | 0.0 | 0.00 | 0.00 | 0.00 | 49 | 1015.4 |